Погода в Добржише

Чехия     49°46′52″N   14°10′20″E
темп.,
°C
ветер,
м/с
пор.,
м/с
влажн.,
%
обл.,
%
осадки,
мм/ч
давл.,
гПа
погр.,
м
8 мая, сб
сб823:00+2зюз28940 0.0 1020181
02:00+1зюз25951 0.0 102189
05:000юз23934 0.0 102250
08:00+5юз35741 0.0 1022320
11:00+10зюз344157 0.0 10211764
14:00+13з3534100 0.0 10192187
17:00+13зюз2438100 0.0 10181697
20:00+9юв2260100 0.0 101824
9 мая, вс
вс923:00+7ю226387 0.0 101924
02:00+4ю23765 0.0 101846
05:00+4ю227875 0.0 101733
08:00+10ю245811 0.0 1017216
11:00+17ююв464721 0.0 1015680
14:00+21юв56445 0.0 10131029
17:00+20юв575193 0.0 1012914
20:00+14юв4127354 0.0 1011467
10 мая, пн
пн1023:00+9вюв12905 0.0 101248
02:00+8в11938 0.0 101124
05:00+6юз01955 0.0 101011
08:00+11ююв25775 0.0 1010376
11:00+19ююв34570 0.0 1009732
14:00+23ююв334723 0.0 10091203
17:00+23вюв33514 0.0 10091167
20:00+17вюв248311 0.0 100969
11 мая, вт
вт1123:00+13в2295100 0.0 100831
02:00+12вюв119615 0.0 100644
05:00+11з1196100 0.0 100611
08:00+14ююз23845 0.0 1007260
11:00+20юз336637 0.0 1007952
14:00+23вюв255662 0.0 10051523
17:00+20вюв3878100 1.4 1003264
20:00+18вюв31078100 1.9 1001269
12 мая, ср
ср1223:00+17ююв412743 0.0 1002458
02:00+12ююз26928 0.0 1003166
05:00+12юз269379 0.0 1005341
08:00+11з3690100 0.1 1006403
11:00+11зсз3593100 1.1 1008483
14:00+11сз3792100 1.1 1008645
17:00+9сз4996100 1.9 1009702
20:00+9сз3897100 3.8 1009563